Time,TemperatureF,DewpointF,PressureIn,WindDirection,WindDirectionDegrees,WindSpeedMPH,WindSpeedGustMPH,Humidity,HourlyPrecipIn,Conditions,Clouds,dailyrainin,SoftwareType,DateUTC
2013-09-06 00:13:00,80.3,76.0,30.07,NNW,346,0.0,-999.0,86,-99.99,,,0.00,weatherlink.com 1.10,2013-09-06 05:13:00,
2013-09-06 00:28:00,79.9,75.0,30.07,NNW,346,0.0,-999.0,85,-99.99,,,0.00,weatherlink.com 1.10,2013-09-06 05:28:00,
2013-09-06 00:43:00,80.0,75.0,30.07,NNW,346,0.0,-999.0,85,-99.99,,,0.00,weatherlink.com 1.10,2013-09-06 05:43:00,
2013-09-06 00:58:00,79.9,75.0,30.06,NNW,330,0.0,-999.0,86,-99.99,,,0.00,weatherlink.com 1.10,2013-09-06 05:58:00,
2013-09-06 01:13:00,79.8,75.0,30.06,NNW,330,0.0,-999.0,86,-99.99,,,0.00,weatherlink.com 1.10,2013-09-06 06:13:00,
2013-09-06 01:28:00,79.9,75.0,30.05,NNW,330,0.0,-999.0,86,-99.99,,,0.00,weatherlink.com 1.10,2013-09-06 06:28:00,
2013-09-06 01:43:00,80.4,76.0,30.04,NNW,330,0.0,-999.0,85,-99.99,,,0.00,weatherlink.com 1.10,2013-09-06 06:43:00,
2013-09-06 01:58:00,79.6,74.0,30.04,North,5,0.0,-999.0,84,-99.99,,,0.00,weatherlink.com 1.10,2013-09-06 06:58:00,
2013-09-06 02:13:00,80.2,75.0,30.03,NNW,348,0.0,-999.0,84,-99.99,,,0.00,weatherlink.com 1.10,2013-09-06 07:13:00,
2013-09-06 02:28:00,80.2,75.0,30.03,NNW,348,0.0,-999.0,83,-99.99,,,0.00,weatherlink.com 1.10,2013-09-06 07:28:00,
2013-09-06 02:43:00,79.6,75.0,30.03,NNW,333,0.0,-999.0,85,-99.99,,,0.00,weatherlink.com 1.10,2013-09-06 07:43:00,
2013-09-06 02:58:00,79.3,74.0,30.03,NNW,338,0.0,-999.0,84,-99.99,,,0.00,weatherlink.com 1.10,2013-09-06 07:58:00,
2013-09-06 03:13:00,79.6,75.0,30.02,North,5,0.0,-999.0,85,-99.99,,,0.00,weatherlink.com 1.10,2013-09-06 08:13:00,
2013-09-06 03:29:00,78.7,74.0,30.02,North,5,0.0,-999.0,86,-99.99,,,0.00,weatherlink.com 1.10,2013-09-06 08:29:00,
2013-09-06 03:44:00,78.7,74.0,30.02,North,355,0.0,-999.0,86,-99.99,,,0.00,weatherlink.com 1.10,2013-09-06 08:44:00,
2013-09-06 03:59:00,78.9,74.0,30.02,North,9,0.0,-999.0,86,-99.99,,,0.00,weatherlink.com 1.10,2013-09-06 08:59:00,
2013-09-06 04:14:00,78.4,74.0,30.02,North,360,0.0,-999.0,87,-99.99,,,0.00,weatherlink.com 1.10,2013-09-06 09:14:00,
2013-09-06 04:29:00,78.5,74.0,30.02,North,5,0.0,-999.0,86,-99.99,,,0.00,weatherlink.com 1.10,2013-09-06 09:29:00,
2013-09-06 04:44:00,78.5,74.0,30.02,NNW,348,0.0,-999.0,87,-99.99,,,0.00,weatherlink.com 1.10,2013-09-06 09:44:00,
2013-09-06 04:59:00,77.9,74.0,30.03,North,10,0.0,-999.0,87,-99.99,,,0.00,weatherlink.com 1.10,2013-09-06 09:59:00,
2013-09-06 05:14:00,78.0,74.0,30.03,NNE,14,0.0,-999.0,87,-99.99,,,0.00,weatherlink.com 1.10,2013-09-06 10:14:00,
2013-09-06 05:29:00,77.4,74.0,30.04,NNE,13,0.0,-999.0,88,-99.99,,,0.00,weatherlink.com 1.10,2013-09-06 10:29:00,
2013-09-06 05:44:00,77.3,74.0,30.04,NNE,13,0.0,-999.0,88,-99.99,,,0.00,weatherlink.com 1.10,2013-09-06 10:44:00,
2013-09-06 05:59:00,77.3,73.0,30.04,NNE,15,0.0,-999.0,87,-99.99,,,0.00,weatherlink.com 1.10,2013-09-06 10:59:00,
2013-09-06 06:14:00,77.1,73.0,30.04,NNE,33,1.0,-999.0,87,-99.99,,,0.00,weatherlink.com 1.10,2013-09-06 11:14:00,
2013-09-06 06:29:00,77.5,73.0,30.05,NNE,26,0.0,-999.0,87,-99.99,,,0.00,weatherlink.com 1.10,2013-09-06 11:29:00,
2013-09-06 06:44:00,77.6,74.0,30.05,NE,36,0.0,-999.0,87,-99.99,,,0.00,weatherlink.com 1.10,2013-09-06 11:44:00,
2013-09-06 06:59:00,78.0,74.0,30.05,NNE,19,0.0,-999.0,86,-99.99,,,0.00,weatherlink.com 1.10,2013-09-06 11:59:00,
2013-09-06 07:14:00,78.4,74.0,30.05,North,5,0.0,-999.0,85,-99.99,,,0.00,weatherlink.com 1.10,2013-09-06 12:14:00,
2013-09-06 07:29:00,79.0,74.0,30.06,NNE,25,1.0,-999.0,83,-99.99,,,0.00,weatherlink.com 1.10,2013-09-06 12:29:00,
2013-09-06 07:44:00,79.4,74.0,30.06,NNE,25,0.0,-999.0,83,-99.99,,,0.00,weatherlink.com 1.10,2013-09-06 12:44:00,
2013-09-06 07:59:00,80.1,73.0,30.06,NE,38,0.0,-999.0,78,-99.99,,,0.00,weatherlink.com 1.10,2013-09-06 12:59:00,
2013-09-06 08:14:00,80.9,73.0,30.07,NNE,16,0.0,-999.0,77,-99.99,,,0.00,weatherlink.com 1.10,2013-09-06 13:14:00,
2013-09-06 08:29:00,81.5,74.0,30.06,NNW,345,0.0,-999.0,79,-99.99,,,0.00,weatherlink.com 1.10,2013-09-06 13:29:00,
2013-09-06 08:44:00,82.1,74.0,30.07,NNE,21,0.0,-999.0,75,-99.99,,,0.00,weatherlink.com 1.10,2013-09-06 13:44:00,
2013-09-06 08:59:00,82.4,74.0,30.07,NNE,16,0.0,-999.0,76,-99.99,,,0.00,weatherlink.com 1.10,2013-09-06 13:59:00,
2013-09-06 09:14:00,83.5,75.0,30.07,North,360,0.0,-999.0,75,-99.99,,,0.00,weatherlink.com 1.10,2013-09-06 14:14:00,
2013-09-06 09:29:00,84.0,74.0,30.08,NNE,33,2.0,-999.0,72,-99.99,,,0.00,weatherlink.com 1.10,2013-09-06 14:29:00,
2013-09-06 09:44:00,83.4,74.0,30.08,North,11,0.0,-999.0,73,-99.99,,,0.00,weatherlink.com 1.10,2013-09-06 14:44:00,
2013-09-06 09:59:00,84.2,74.0,30.08,North,360,0.0,-999.0,72,-99.99,,,0.00,weatherlink.com 1.10,2013-09-06 14:59:00,
2013-09-06 10:14:00,84.8,74.0,30.08,NNE,17,0.0,-999.0,70,-99.99,,,0.00,weatherlink.com 1.10,2013-09-06 15:14:00,
2013-09-06 10:29:00,85.5,75.0,30.08,NNE,27,0.0,-999.0,71,-99.99,,,0.00,weatherlink.com 1.10,2013-09-06 15:29:00,
2013-09-06 10:44:00,87.0,75.0,30.08,North,11,1.0,-999.0,67,-99.99,,,0.00,weatherlink.com 1.10,2013-09-06 15:44:00,
2013-09-06 10:59:00,86.8,74.0,30.08,North,5,0.0,-999.0,66,-99.99,,,0.00,weatherlink.com 1.10,2013-09-06 15:59:00,
2013-09-06 11:14:00,86.9,71.0,30.08,North,360,2.0,-999.0,60,-99.99,,,0.00,weatherlink.com 1.10,2013-09-06 16:14:00,
2013-09-06 11:29:00,88.8,74.0,30.08,North,355,0.0,-999.0,62,-99.99,,,0.00,weatherlink.com 1.10,2013-09-06 16:29:00,
2013-09-06 11:44:00,88.6,72.0,30.07,North,5,0.0,-999.0,58,-99.99,,,0.00,weatherlink.com 1.10,2013-09-06 16:44:00,
2013-09-06 11:59:00,88.8,72.0,30.07,North,360,0.0,-999.0,57,-99.99,,,0.00,weatherlink.com 1.10,2013-09-06 16:59:00,
2013-09-06 12:14:00,90.7,71.0,30.07,ENE,69,0.0,-999.0,52,-99.99,,,0.00,weatherlink.com 1.10,2013-09-06 17:14:00,
2013-09-06 12:29:00,90.4,71.0,30.06,NNW,347,0.0,-999.0,53,-99.99,,,0.00,weatherlink.com 1.10,2013-09-06 17:29:00,
2013-09-06 12:44:00,90.5,70.0,30.06,ESE,103,0.0,-999.0,51,-99.99,,,0.00,weatherlink.com 1.10,2013-09-06 17:44:00,
2013-09-06 12:59:00,91.9,71.0,30.05,NE,43,0.0,-999.0,51,-99.99,,,0.00,weatherlink.com 1.10,2013-09-06 17:59:00,
2013-09-06 13:14:00,94.3,72.0,30.05,NW,320,0.0,-999.0,48,-99.99,,,0.00,weatherlink.com 1.10,2013-09-06 18:14:00,
2013-09-06 13:29:00,94.2,72.0,30.04,South,190,0.0,-999.0,48,-99.99,,,0.00,weatherlink.com 1.10,2013-09-06 18:29:00,
2013-09-06 13:44:00,94.6,72.0,30.03,WSW,240,0.0,-999.0,48,-99.99,,,0.00,weatherlink.com 1.10,2013-09-06 18:44:00,
2013-09-06 14:00:00,93.3,71.0,30.03,SW,214,0.0,-999.0,48,-99.99,,,0.00,weatherlink.com 1.10,2013-09-06 19:00:00,
2013-09-06 14:15:00,91.7,71.0,30.02,SW,229,6.0,-999.0,51,-99.99,,,0.00,weatherlink.com 1.10,2013-09-06 19:15:00,
2013-09-06 14:30:00,90.4,71.0,30.01,SW,219,5.0,-999.0,53,-99.99,,,0.00,weatherlink.com 1.10,2013-09-06 19:30:00,
2013-09-06 14:45:00,91.0,72.0,30.00,SW,221,8.0,-999.0,53,-99.99,,,0.00,weatherlink.com 1.10,2013-09-06 19:45:00,
2013-09-06 15:00:00,91.4,72.0,30.00,WSW,250,1.0,-999.0,54,-99.99,,,0.00,weatherlink.com 1.10,2013-09-06 20:00:00,
2013-09-06 15:15:00,91.3,72.0,29.99,SW,224,4.0,-999.0,54,-99.99,,,0.00,weatherlink.com 1.10,2013-09-06 20:15:00,
2013-09-06 15:30:00,91.1,72.0,29.99,WSW,255,4.0,-999.0,54,-99.99,,,0.00,weatherlink.com 1.10,2013-09-06 20:30:00,
2013-09-06 15:45:00,91.1,73.0,29.98,SSW,200,2.0,-999.0,55,-99.99,,,0.00,weatherlink.com 1.10,2013-09-06 20:45:00,
2013-09-06 16:00:00,90.4,73.0,29.99,SW,222,5.0,-999.0,56,-99.99,,,0.00,weatherlink.com 1.10,2013-09-06 21:00:00,
2013-09-06 16:15:00,89.3,73.0,29.99,SW,232,4.0,-999.0,58,-99.99,,,0.00,weatherlink.com 1.10,2013-09-06 21:15:00,
2013-09-06 16:30:00,89.5,73.0,29.98,SW,233,0.0,-999.0,59,-99.99,,,0.00,weatherlink.com 1.10,2013-09-06 21:30:00,
2013-09-06 16:45:00,90.1,74.0,29.98,WSW,241,0.0,-999.0,59,-99.99,,,0.00,weatherlink.com 1.10,2013-09-06 21:45:00,
2013-09-06 17:00:00,89.9,73.0,29.98,WSW,256,6.0,-999.0,57,-99.99,,,0.00,weatherlink.com 1.10,2013-09-06 22:00:00,
2013-09-06 17:15:00,90.6,73.0,29.98,WSW,239,2.0,-999.0,57,-99.99,,,0.00,weatherlink.com 1.10,2013-09-06 22:15:00,
2013-09-06 17:30:00,89.7,73.0,29.98,West,265,5.0,-999.0,59,-99.99,,,0.00,weatherlink.com 1.10,2013-09-06 22:30:00,
2013-09-06 17:45:00,88.9,74.0,29.98,WSW,253,0.0,-999.0,61,-99.99,,,0.00,weatherlink.com 1.10,2013-09-06 22:45:00,
2013-09-06 18:00:00,88.6,73.0,29.98,SW,223,4.0,-999.0,61,-99.99,,,0.00,weatherlink.com 1.10,2013-09-06 23:00:00,
2013-09-06 18:15:00,88.3,74.0,29.98,WSW,244,5.0,-999.0,62,-99.99,,,0.00,weatherlink.com 1.10,2013-09-06 23:15:00,
2013-09-06 18:30:00,87.9,74.0,29.97,West,263,5.0,-999.0,64,-99.99,,,0.00,weatherlink.com 1.10,2013-09-06 23:30:00,
2013-09-06 18:45:00,87.6,74.0,29.98,WSW,257,0.0,-999.0,65,-99.99,,,0.00,weatherlink.com 1.10,2013-09-06 23:45:00,
2013-09-06 19:00:00,87.4,74.0,29.98,WSW,249,0.0,-999.0,65,-99.99,,,0.00,weatherlink.com 1.10,2013-09-07 00:00:00,
2013-09-06 19:15:00,85.6,74.0,29.99,WSW,250,0.0,-999.0,69,-99.99,,,0.00,weatherlink.com 1.10,2013-09-07 00:15:00,
2013-09-06 19:30:00,84.5,74.0,29.99,WSW,250,0.0,-999.0,71,-99.99,,,0.00,weatherlink.com 1.10,2013-09-07 00:30:00,
2013-09-06 19:45:00,84.1,75.0,29.99,WSW,250,0.0,-999.0,73,-99.99,,,0.00,weatherlink.com 1.10,2013-09-07 00:45:00,
2013-09-06 20:00:00,84.3,74.0,30.00,WSW,250,0.0,-999.0,72,-99.99,,,0.00,weatherlink.com 1.10,2013-09-07 01:00:00,
2013-09-06 20:15:00,84.4,75.0,30.00,NE,47,0.0,-999.0,73,-99.99,,,0.00,weatherlink.com 1.10,2013-09-07 01:15:00,
2013-09-06 20:30:00,84.6,74.0,30.01,NNE,20,0.0,-999.0,71,-99.99,,,0.00,weatherlink.com 1.10,2013-09-07 01:30:00,
2013-09-06 20:45:00,84.4,73.0,30.01,NNE,23,0.0,-999.0,69,-99.99,,,0.00,weatherlink.com 1.10,2013-09-07 01:45:00,
2013-09-06 21:00:00,84.5,70.0,30.00,NNE,23,0.0,-999.0,62,-99.99,,,0.00,weatherlink.com 1.10,2013-09-07 02:00:00,
2013-09-06 21:15:00,84.5,70.0,30.01,NNE,19,0.0,-999.0,62,-99.99,,,0.00,weatherlink.com 1.10,2013-09-07 02:15:00,
2013-09-06 21:30:00,84.9,70.0,30.01,NNE,26,0.0,-999.0,61,-99.99,,,0.00,weatherlink.com 1.10,2013-09-07 02:30:00,
2013-09-06 21:45:00,84.3,69.0,30.01,North,351,0.0,-999.0,60,-99.99,,,0.00,weatherlink.com 1.10,2013-09-07 02:45:00,
2013-09-06 22:00:00,84.0,69.0,30.01,North,11,0.0,-999.0,61,-99.99,,,0.00,weatherlink.com 1.10,2013-09-07 03:00:00,
2013-09-06 22:15:00,83.4,70.0,30.00,NNE,23,0.0,-999.0,64,-99.99,,,0.00,weatherlink.com 1.10,2013-09-07 03:15:00,
2013-09-06 22:30:00,83.2,71.0,30.01,NNE,24,0.0,-999.0,66,-99.99,,,0.00,weatherlink.com 1.10,2013-09-07 03:30:00,
2013-09-06 22:45:00,82.8,71.0,30.00,NNE,26,0.0,-999.0,68,-99.99,,,0.00,weatherlink.com 1.10,2013-09-07 03:45:00,
2013-09-06 23:00:00,82.6,71.0,30.00,NNE,26,0.0,-999.0,69,-99.99,,,0.00,weatherlink.com 1.10,2013-09-07 04:00:00,
2013-09-06 23:15:00,82.0,71.0,30.00,NNE,26,0.0,-999.0,70,-99.99,,,0.00,weatherlink.com 1.10,2013-09-07 04:15:00,
2013-09-06 23:30:00,82.0,72.0,30.00,NNE,27,0.0,-999.0,71,-99.99,,,0.00,weatherlink.com 1.10,2013-09-07 04:30:00,
2013-09-06 23:45:00,81.8,72.0,30.00,NNE,22,0.0,-999.0,71,-99.99,,,0.00,weatherlink.com 1.10,2013-09-07 04:45:00,